SCP
1 0 0 1 1 1 1 1 1 0 1 1 2 1 1 0 0 0 1 1 1 1 1 1 1 1 1 1 1 1 1 1 1 1 1 1 1 1 1 0 0 0 0 0 0 0 1 1 1
0 0 0 1 1 1 1 1 0 0 1 1 1 1 1 1 1 1 1 1 1 1 1 1 1 1 1 1 1 1 1 1 1 1 1 1 1 1 1 1 1 1 0 1 1 1 1 1 1
0 0 1 1 1 1 0 0 0 1 1 1 1 1 1 1 1 1 1 1 1 1 1 1 1 1 1 1 1 1 1 1 1 2 2 2 1 1 1 1 1 1 1 1 1 1 1 1 1
1 1 1 1 0 0 0 0 1 1 1 0 1 1 1 1 1 1 1 1 1 1 1 1 1 1 2 1 1 1 1 1 2 2 2 2 1 1 1 1 1 0 1 1 1 1 1 1 1
1 1 1 0 0 0 0 1 1 1 1 0 0 1 1 1 1 1 1 1 1 1 1 1 1 1 1 1 1 1 1 1 2 2 2 2 1 1 1 1 0 0 1 1 1 1 1 1 1
1 1 1 0 0 0 0 1 1 1 1 0 0 0 1 1 1 1 1 1 1 1 1 1 1 1 1 1 1 1 1 1 2 2 2 1 1 1 1 1 1 1 1 1 1 2 2 2 2
1 1 1 0 0 0 0 1 1 1 1 1 1 0 1 1 1 1 1 1 1 1 1 1 1 1 1 1 1 1 1 1 2 2 2 1 1 1 1 1 1 1 2 2 2 2 2 2 2
1 1 0 0 0 0 1 1 1 1 1 1 1 1 1 1 1 1 1 1 1 1 1 1 1 1 1 1 1 1 1 1 1 1 1 1 1 1 1 1 2 2 2 3 3 3 3 3 2
1 1 0 0 0 0 1 1 1 1 1 1 1 1 1 1 1 1 1 1 1 1 1 1 1 1 1 1 1 1 1 1 1 1 1 1 1 1 1 1 2 2 2 2 2 2 2 2 2
1 1 1 0 0 0 1 1 1 2 2 1 1 1 1 1 1 1 1 1 1 1 1 1 1 1 1 1 1 1 1 0 1 1 1 1 1 1 1 1 1 2 2 2 2 1 1 1 2
1 1 1 1 1 0 1 1 1 2 1 1 1 1 1 2 2 1 1 1 1 1 1 1 1 1 1 1 1 1 1 0 1 1 1 1 1 1 1 1 1 1 1 1 1 1 1 1 1
1 1 1 1 1 0 1 1 1 1 1 1 1 1 1 2 2 2 1 1 1 1 1 1 1 1 1 1 1 1 1 1 1 1 1 1 1 1 1 1 1 1 1 1 1 1 1 1 1
1 1 1 1 1 1 1 1 1 1 1 1 1 1 1 1 1 2 2 1 1 1 1 1 1 1 1 1 1 1 1 1 1 1 1 2 2 1 1 1 1 1 1 1 1 1 1 1 1
1 0 0 0 1 1 1 1 1 1 1 1 1 1 1 1 1 1 2 2 2 2 2 2 1 2 2 2 1 1 1 1 1 1 2 2 2 2 1 1 1 1 1 1 1 1 1 1 1
0 0 0 0 0 1 1 2 1 1 2 2 1 1 1 1 1 1 1 2 2 2 2 2 2 2 2 1 1 1 1 1 1 2 2 2 2 1 1 1 1 1 1 1 1 1 1 1 1
0 0 0 0 0 1 1 1 1 2 2 2 1 1 1 1 1 1 1 1 1 1 2 2 2 2 2 1 1 1 1 1 2 2 2 2 1 1 1 1 1 1 1 1 1 1 1 1 0
0 0 0 0 0 1 1 2 2 2 2 2 1 1 1 1 1 1 1 1 1 1 2 2 2 2 2 2 2 1 1 2 2 2 2 2 1 1 1 1 1 1 1 1 1 1 1 0 0
0 0 1 1 1 1 1 1 1 2 2 2 1 1 1 1 1 1 1 1 1 1 1 2 2 2 3 3 3 2 2 2 2 2 1 1 1 1 1 1 1 1 1 1 1 1 1 0 0
1 1 1 1 1 1 1 1 1 2 2 1 1 1 1 1 1 1 1 2 2 2 1 1 2 3 4 4 4 4 2 2 1 1 1 1 1 1 1 1 1 1 0 0 0 0 0 0 0
1 1 1 1 0 0 0 0 1 1 1 1 1 1 1 2 3 3 2 2 2 2 2 1 2 3 4 5 5 4 2 1 1 1 1 1 1 1 2 2 1 1 1 1 1 1 0 0 0
1 1 1 1 1 0 0 0 0 1 1 1 1 2 2 3 4 5 4 4 3 3 2 2 1 3 4 6 5 3 2 1 1 1 1 1 1 2 3 3 2 1 1 1 1 1 0 0 1
0 1 1 1 1 0 0 0 0 0 1 1 1 2 3 3 4 6 6 5 4 3 2 2 1 2 4 5 5 3 2 1 1 1 1 1 1 2 3 3 2 1 1 1 1 1 0 1 1
0 1 1 1 0 0 0 0 0 0 1 1 1 3 4 3 4 6 7 7 5 3 2 2 2 3 4 5 4 3 2 1 1 1 1 2 1 1 2 2 2 1 1 1 1 0 0 1 1
0 0 0 0 0 0 0 0 0 0 1 1 1 2 3 3 4 6 8 7 6 4 2 2 2 3 4 4 4 3 2 1 1 1 1 1 1 1 1 1 1 1 1 1 1 1 1 1 1
0 0 0 0 0 0 0 0 0 1 1 1 1 1 2 2 3 6 8 8 6 4 3 2 3 4 4 4 3 2 1 1 1 1 1 1 1 1 1 1 1 1 1 1 1 1 1 1 1
0 0 0 0 0 0 0 0 0 1 1 1 1 1 2 2 3 6 8 7 6 4 4 3 3 3 3 3 3 2 1 1 1 1 1 1 1 1 0 0 1 1 1 1 1 1 1 1 1
0 0 0 0 0 0 0 0 0 1 1 1 1 1 2 2 2 5 7 6 5 5 4 3 3 2 2 2 2 1 1 1 1 1 1 1 1 1 1 0 1 1 1 1 1 1 1 1 1
0 0 0 0 0 0 0 1 1 1 1 1 1 2 2 1 3 5 7 6 6 5 4 3 3 2 2 1 1 1 1 1 1 1 1 1 1 1 1 1 1 1 1 1 2 2 1 1 1
0 0 0 0 0 0 0 1 1 1 1 1 1 2 1 2 4 6 7 6 6 5 4 3 3 3 2 2 1 1 1 1 1 1 1 1 1 1 1 1 1 1 1 2 2 2 1 1 1
0 0 0 0 0 0 1 1 1 1 1 1 2 1 1 2 4 6 7 6 5 5 4 4 4 3 2 2 2 1 1 1 1 1 1 1 1 1 1 1 1 1 1 2 2 2 1 1 1
Wind_Speed
8 5 3 1 2 3 2 2 0 2 2 2 3 4 5 3 2 1 1 4 5 5 4 6 7 6 6 7 8 9 9 9 9 9 9 10 11 11 11 11 11 10 10 9 9 9 9 8 9
6 5 1 1 3 3 2 2 2 2 2 3 4 4 5 3 3 4 2 3 6 5 4 4 7 7 7 7 8 8 9 9 9 9 9 10 10 10 10 10 10 10 9 9 9 8 8 8 8
6 3 1 2 2 1 1 1 2 3 2 2 3 4 4 2 3 3 3 6 6 4 3 4 8 7 7 7 7 8 8 8 8 8 8 8 9 9 9 9 9 9 8 8 8 7 7 7 7
3 1 1 3 2 1 2 2 2 2 3 4 4 4 4 2 2 4 6 6 6 4 3 4 7 7 7 7 7 7 7 8 8 8 7 8 8 8 8 8 8 7 7 7 6 6 6 6 6
1 2 3 2 2 1 1 2 2 2 2 3 4 4 3 4 5 7 7 6 6 4 3 3 7 7 7 6 7 7 7 7 7 7 7 7 7 7 7 7 7 6 6 6 6 5 5 5 6
2 3 3 2 2 2 0 1 2 4 3 3 4 4 2 2 5 6 6 5 5 5 3 3 6 7 6 6 6 7 7 7 7 6 6 6 6 6 6 7 6 5 5 5 5 4 4 5 6
2 3 1 0 1 1 1 1 3 4 4 3 4 4 1 1 3 5 5 5 5 4 4 2 2 3 5 5 6 6 6 6 6 5 5 5 5 5 5 5 5 5 4 4 4 4 4 5 6
2 3 1 1 0 2 1 2 2 4 3 4 4 6 4 4 6 6 6 4 4 4 3 2 2 2 1 2 4 4 5 5 5 4 4 3 3 3 3 3 4 4 4 4 4 4 4 4 5
2 3 1 3 3 2 1 2 2 2 5 3 3 3 5 10 9 8 5 4 3 3 2 2 2 2 1 1 2 2 3 3 4 3 3 2 1 1 0 2 3 4 4 4 4 4 3 3 4
3 2 4 4 4 3 1 1 3 3 3 3 5 6 10 10 9 8 7 6 5 3 2 2 2 2 1 1 1 1 1 1 1 1 1 1 2 1 1 0 2 2 2 2 2 1 2 1 1
3 4 3 2 3 3 1 1 2 5 2 4 8 11 11 10 8 7 6 6 5 4 3 2 2 2 2 1 1 1 1 1 1 1 1 1 1 1 1 1 1 1 1 0 1 0 0 0 1
2 3 3 2 1 2 2 2 2 2 4 5 10 14 13 11 9 8 7 6 4 4 3 3 3 2 2 1 1 1 1 1 1 0 1 1 1 1 1 1 1 1 1 1 1 0 0 0 0
2 2 1 0 2 3 4 3 2 0 2 8 11 11 11 10 8 6 5 4 4 4 4 3 3 3 2 2 1 1 1 1 1 1 0 1 1 0 0 1 1 1 1 1 0 1 1 0 0
2 1 1 1 2 2 5 2 3 1 6 9 10 10 9 9 8 6 5 5 5 5 4 3 4 3 3 2 1 1 1 1 1 1 1 1 1 1 0 1 1 1 1 1 1 0 0 0 0
1 2 3 2 1 1 4 2 1 4 7 8 8 8 8 7 7 7 7 7 6 5 4 4 4 4 3 2 2 1 1 1 1 1 1 1 1 1 1 1 1 1 1 1 1 1 1 1 0
3 3 1 3 0 1 5 2 2 5 8 7 7 7 7 6 6 7 7 6 5 4 4 4 4 4 3 2 2 1 1 1 1 1 1 1 1 1 1 1 0 1 1 1 0 1 1 1 0
4 1 2 3 0 1 3 3 2 4 7 7 7 7 6 5 5 5 6 6 6 5 5 4 4 4 4 3 2 1 1 1 1 1 1 1 1 1 1 1 0 1 1 1 0 1 0 0 1
2 1 2 3 1 2 2 3 1 4 7 7 7 6 5 6 7 6 5 5 5 5 5 4 4 4 3 2 2 1 1 1 1 1 1 1 1 1 1 1 1 1 1 1 1 1 1 0 0
3 2 3 4 2 3 2 3 3 3 5 6 6 7 8 8 6 4 5 5 5 4 5 5 5 4 3 2 2 1 1 0 0 0 1 1 1 1 1 1 1 1 1 0 1 0 1 1 1
2 1 2 2 1 3 1 2 2 3 6 6 8 8 9 7 4 5 5 6 6 6 6 5 5 4 3 2 2 2 2 1 1 0 1 0 1 1 2 1 1 1 1 1 1 1 1 1 2
2 4 4 2 2 3 2 4 3 3 3 4 5 6 7 9 8 7 7 7 7 7 7 7 6 5 4 3 2 2 2 2 1 1 1 1 0 1 1 1 1 1 0 0 1 0 1 0 1
4 4 4 3 3 1 1 2 5 3 3 5 6 6 7 8 8 8 8 7 7 7 6 6 5 5 4 4 4 3 3 2 1 1 0 1 1 1 1 1 1 0 0 0 1 1 0 1 0
5 1 2 2 3 2 2 1 7 2 4 8 8 7 8 8 9 9 9 8 7 6 7 6 6 5 4 4 5 4 3 2 1 1 1 1 1 1 1 1 1 0 0 0 1 1 0 1 1
3 5 5 5 5 1 2 2 6 4 6 6 5 6 7 7 7 7 6 6 5 5 5 6 7 5 5 5 4 5 4 3 3 2 1 0 0 1 1 0 0 0 0 1 1 0 0 0 0
4 6 4 4 4 4 2 2 8 6 5 6 5 5 5 6 6 6 7 7 6 7 7 6 7 6 5 5 4 4 4 4 4 3 2 1 0 0 1 0 0 1 1 1 0 0 0 0 0
3 8 7 5 5 4 1 4 7 5 4 3 3 3 3 5 5 6 7 7 7 7 7 7 7 6 6 5 5 4 4 3 2 3 2 2 2 2 1 1 1 1 1 1 0 0 1 0 0
5 3 5 7 2 0 4 5 7 3 4 3 2 1 3 4 5 5 5 6 6 6 7 8 7 6 5 5 5 4 4 3 3 2 2 2 1 1 1 1 1 1 1 1 1 0 1 0 1
4 8 6 6 5 2 4 3 5 5 5 3 2 2 2 2 3 5 6 6 6 5 5 6 6 6 5 4 4 4 4 4 3 2 2 2 1 1 1 1 1 1 1 1 1 1 1 1 1
3 4 5 5 5 6 3 6 5 6 4 3 3 2 1 2 4 5 5 5 5 5 5 5 5 5 4 5 4 3 3 3 3 3 3 3 2 2 2 2 2 2 2 1 1 2 1 1 1
4 6 7 5 3 4 4 7 4 3 3 2 3 2 1 2 3 4 5 5 5 5 5 5 5 5 5 4 4 4 3 3 3 3 3 3 2 2 2 2 2 2 2 2 2 2 2 2 2
Wind_Direction
157 145 144 146 56 47 357 322 321 30 41 42 86 89 105 102 130 164 107 128 127 136 150 155 148 141 132 125 125 126 125 125 125 127 131 133 133 138 140 143 144 145 148 149 145 145 145 143 142
148 152 175 69 71 49 334 321 42 53 120 128 83 73 73 66 65 100 120 140 134 138 138 148 142 138 134 130 130 130 128 126 125 126 128 132 135 140 144 146 146 146 148 148 148 147 145 148 150
164 182 104 69 76 151 239 300 100 83 91 82 71 59 73 86 113 136 158 141 132 136 136 156 141 139 139 136 133 132 131 129 129 129 130 132 136 141 145 147 146 148 149 153 153 153 154 156 157
164 126 49 58 35 243 201 194 139 116 53 50 85 69 57 56 131 139 135 134 133 140 137 158 145 142 138 139 140 137 134 133 131 131 134 137 141 141 140 143 147 151 153 150 153 157 163 168 168
96 69 46 26 335 312 179 179 158 104 66 63 86 83 39 12 93 118 127 128 133 140 135 158 149 140 138 141 142 141 138 135 134 131 133 138 142 145 146 149 151 154 159 157 157 162 172 181 181
59 58 54 8 336 348 37 160 112 94 92 90 89 87 34 68 107 127 125 118 123 132 127 143 153 145 144 148 146 144 141 140 138 136 134 138 142 146 153 158 160 165 169 171 171 175 184 191 188
93 77 50 291 322 338 213 132 122 115 111 122 119 99 72 110 123 123 113 106 108 114 115 114 129 146 152 151 148 148 149 147 144 140 139 139 146 150 157 162 169 171 180 191 197 200 198 199 193
140 93 18 318 244 275 211 116 121 123 121 119 116 130 172 170 130 114 102 98 104 102 105 105 92 97 116 137 147 149 152 155 149 143 140 138 142 159 173 170 176 181 189 204 211 222 212 205 202
130 77 244 224 194 233 182 106 99 89 110 107 106 137 148 136 130 120 115 107 119 124 106 113 113 105 105 118 156 152 154 152 152 150 152 137 52 34 97 184 192 191 195 204 210 217 218 207 206
117 130 232 217 191 191 192 139 135 104 102 95 85 95 119 135 141 144 151 158 164 168 162 140 142 142 132 142 112 80 94 82 84 69 68 55 46 22 18 234 220 221 212 206 199 184 190 189 187
166 204 244 240 197 171 167 107 107 127 165 186 158 146 145 149 154 161 170 174 178 176 176 171 164 148 137 123 105 89 78 70 67 67 68 65 51 26 20 26 349 336 349 45 105 117 309 161 169
185 252 236 250 149 136 144 113 90 155 210 174 155 151 154 161 170 178 180 182 173 166 179 172 164 152 150 139 121 115 106 110 105 125 123 95 62 27 28 32 6 13 15 25 38 91 339 222 206
194 275 287 191 73 101 96 95 114 238 133 126 136 146 159 170 179 185 182 175 168 177 184 176 165 163 161 152 164 157 165 178 185 176 146 134 140 123 40 10 11 19 22 27 13 23 30 350 351
237 315 332 18 90 108 104 83 94 165 130 134 145 159 169 177 179 173 176 182 187 190 190 176 165 161 149 154 171 177 182 192 172 196 206 165 156 141 80 20 16 8 15 25 40 39 70 73 86
56 58 16 17 69 123 100 41 204 163 139 147 159 167 174 183 178 183 189 192 193 192 188 181 170 150 152 166 182 175 178 168 183 212 194 172 172 156 124 53 14 5 24 39 34 25 49 60 84
45 56 5 290 61 111 110 243 255 153 149 161 171 176 182 192 195 194 189 191 190 182 179 183 174 153 161 175 186 170 160 158 191 196 158 169 174 155 130 108 31 26 51 48 57 41 30 22 35
34 27 276 298 314 117 136 230 240 159 160 171 179 185 192 200 212 206 192 187 183 180 175 174 170 158 170 176 167 155 132 132 144 132 116 148 164 154 142 130 79 77 77 52 356 77 95 4 346
252 259 277 274 273 117 170 227 206 172 171 182 183 189 199 208 216 208 197 184 176 174 169 170 169 165 160 148 121 97 80 79 94 107 121 143 149 147 129 102 70 70 67 32 39 72 67 60 325
186 181 247 257 223 137 204 239 236 193 187 197 194 195 208 217 216 195 190 180 169 169 172 174 171 171 155 148 149 146 168 159 66 96 155 161 147 134 116 94 86 82 85 29 26 66 42 33 43
167 182 257 298 88 130 146 289 263 211 214 208 204 207 213 212 199 195 190 184 180 183 184 179 179 172 172 173 157 145 140 137 138 58 73 123 148 147 140 128 128 114 81 33 23 60 66 32 54
241 197 213 209 30 56 78 329 285 257 236 236 221 211 212 206 202 202 198 193 184 188 187 186 181 169 168 151 116 98 82 58 38 25 16 348 87 111 115 139 137 128 138 352 352 67 129 98 37
264 232 196 167 113 312 102 280 288 269 266 247 241 220 214 210 203 201 199 196 192 193 184 174 167 158 159 149 146 149 154 174 210 204 233 6 25 51 96 129 133 130 72 349 331 73 142 143 141
225 135 126 127 127 68 22 173 285 316 267 256 244 229 218 209 204 201 199 195 191 182 172 166 152 149 154 155 160 158 161 176 143 103 82 39 19 18 31 115 139 147 220 330 7 34 71 165 185
150 71 59 52 71 25 254 176 280 249 234 256 249 235 221 209 203 197 188 174 173 168 161 154 146 149 157 158 162 164 164 157 138 135 146 166 345 355 356 63 119 189 243 287 305 359 29 34 219
95 90 37 5 14 257 250 188 253 256 246 238 241 237 218 201 192 184 175 175 176 173 167 157 153 156 159 159 168 172 174 168 167 170 175 175 202 273 293 294 265 261 260 268 292 36 342 313 284
168 142 156 191 217 268 304 229 257 273 283 271 247 236 211 197 188 184 179 178 179 177 165 159 161 162 162 165 173 173 170 172 174 175 178 187 207 224 248 244 253 276 289 298 262 211 248 145 249
139 157 159 132 143 267 281 287 303 314 328 331 334 267 215 201 184 172 163 165 170 171 170 168 167 169 174 177 172 167 167 170 175 174 174 190 210 213 218 227 264 278 279 265 212 205 243 211 237
129 140 103 118 145 233 285 279 265 282 287 298 298 272 250 190 172 163 162 164 165 165 161 155 162 171 171 174 183 178 173 171 171 162 175 192 204 214 209 232 253 272 276 256 214 227 239 203 244
102 97 104 114 148 159 228 267 236 231 239 251 266 279 260 181 175 168 162 158 151 147 151 151 156 161 173 177 175 171 171 166 169 183 196 199 206 204 208 218 230 245 257 250 218 226 220 222 257
156 159 146 150 199 169 175 260 285 233 239 230 255 281 288 168 159 153 151 146 147 155 155 157 156 164 178 178 169 174 171 166 182 201 208 203 208 215 216 217 224 236 244 239 225 233 226 223 246